DateTime,F1_A11,F1_S11,BsB_S11,BsG_S11,BsR_S11,BbsB_S11,BbsG_S11,BbsR_S11,BaB_A11,BaG_A11,BaR_A11,T_S11,U_S11,P_S11,T1_A11
2016-11-07T00:00:00Z,0040380,21000600,,,,,,,,,,27.0,00.0,0637.4,34.7
2016-11-07T00:01:00Z,0040380,21000600,,,,,,,,,,27.0,00.0,0637.4,34.7
2016-11-07T00:02:00Z,0040380,21000600,,,,,,,,,,27.0,00.0,0637.4,34.7
2016-11-07T00:03:00Z,0040380,61000600,,,,,,,,,,27.0,00.0,0637.4,34.7
2016-11-07T00:04:00Z,0040380,41000600,0000.73,0000.17,0000.25,0000.28,0000.42,0000.43,0000.02,-000.13,-000.23,27.0,00.0,0638.3,34.7
2016-11-07T00:05:00Z,0040380,01000600,0000.46,0000.44,0000.23,0000.58,-000.47,-000.38,-000.01,0000.12,-000.00,27.0,00.0,0638.3,34.7
2016-11-07T00:06:00Z,0040380,01000600,-000.15,0000.66,-000.05,-000.04,0000.17,0000.46,0000.01,-000.20,0000.07,27.0,00.0,0638.3,34.7
2016-11-07T00:07:00Z,0040380,01000600,0000.84,-000.01,0000.03,0000.17,0000.61,0000.12,0000.01,0000.03,-000.06,27.0,00.0,0638.2,34.7
2016-11-07T00:08:00Z,0040380,01000600,0001.30,0000.52,-000.08,-000.16,0000.35,0000.58,0000.02,0000.03,-000.26,27.0,00.0,0638.2,34.7
2016-11-07T00:09:00Z,0040380,01000600,0000.21,0000.24,0000.20,0000.71,0000.54,0000.06,-000.14,-000.14,-000.20,27.0,00.0,0638.2,34.7
2016-11-07T00:10:00Z,0040380,01000600,0001.15,0000.56,0000.11,0000.79,0000.20,0000.24,0000.02,0000.08,0000.31,27.0,00.0,0638.2,34.7
2016-11-07T00:11:00Z,0040380,01000600,0000.97,0000.36,0000.22,0000.45,0000.55,0000.38,-000.03,-000.04,-000.20,26.9,00.0,0638.2,34.7
2016-11-07T00:12:00Z,0040380,01000600,0000.24,0000.56,0000.07,0000.63,0000.42,0000.15,0000.27,0000.14,0000.38,26.9,00.0,0638.1,34.7
2016-11-07T00:13:00Z,0040380,01000600,0000.11,0000.46,-000.05,0000.69,0000.58,0000.15,0000.08,0000.02,0000.11,26.9,00.0,0638.1,34.7
2016-11-07T00:14:00Z,0040380,01000600,0000.11,0000.85,0000.01,0000.62,0000.84,0000.45,0000.06,0000.21,-000.12,26.9,00.0,0638.0,34.6
2016-11-07T00:15:00Z,0040380,01000600,0002.02,0000.39,-000.05,0000.58,0000.21,0000.52,-000.18,-000.20,-000.10,26.9,00.0,0638.0,34.7
2016-11-07T00:16:00Z,0040380,01000600,0000.60,0000.45,0000.05,0001.11,0000.48,0000.16,-000.09,-000.10,0000.00,26.9,00.0,0638.0,34.7
2016-11-07T00:17:00Z,0040380,01000600,0000.40,0000.44,-000.33,0000.25,0000.56,0000.48,-000.09,-000.05,0000.31,26.9,00.0,0638.0,34.7
2016-11-07T00:18:00Z,0040380,01000600,0000.62,0000.22,0000.12,0000.11,0000.45,0000.52,0000.04,0000.10,-000.20,26.8,00.0,0638.0,34.7
2016-11-07T00:19:00Z,0040380,01000600,-000.26,0000.86,-000.71,0000.24,0000.34,0000.22,-000.16,-000.09,-000.18,26.8,00.0,0638.0,34.7
2016-11-07T00:20:00Z,0040380,01000600,0000.60,0000.03,0000.47,0000.15,0000.24,0000.09,0000.24,0000.10,0000.36,26.9,00.0,0637.9,34.7
2016-11-07T00:21:00Z,0040380,01000600,0000.64,-000.20,-000.77,0000.24,0000.62,0000.47,-000.37,-000.12,-000.31,26.9,00.0,0637.9,34.7
2016-11-07T00:22:00Z,0040380,01000600,-001.06,0000.05,0000.00,0000.38,0000.28,0000.29,0000.25,0000.13,-000.02,26.9,00.0,0637.9,34.7
2016-11-07T00:23:00Z,0040380,01000600,-000.91,0000.79,-000.20,0000.14,0000.16,0000.30,-000.24,-000.05,-000.37,26.9,00.0,0637.9,34.8
2016-11-07T00:24:00Z,0040380,01000600,0000.91,0001.00,-000.04,0000.77,0000.59,0000.45,0000.22,-000.01,0000.70,26.9,00.0,0637.8,34.8
2016-11-07T00:25:00Z,0040380,01000600,0000.22,0000.29,0000.43,-000.35,0000.01,0000.48,-000.10,0000.00,-000.15,26.9,00.0,0637.8,34.8
2016-11-07T00:26:00Z,0040380,01000600,0000.91,0000.06,0000.45,0000.01,0000.11,-000.05,0000.25,0000.03,-000.17,26.9,00.0,0637.8,34.8
2016-11-07T00:27:00Z,0040380,01000600,0001.38,0000.17,0000.18,0000.39,0000.25,-000.09,-000.09,0000.15,0000.49,26.9,00.0,0637.8,34.7
2016-11-07T00:28:00Z,0040380,01000600,-000.02,0000.49,0000.35,0000.50,-000.01,0000.65,0000.08,-000.19,-000.42,26.9,00.0,0637.7,34.7
2016-11-07T00:29:00Z,0040380,01000600,0001.21,0000.75,0000.25,0000.92,-000.04,0000.18,0000.04,0000.26,0000.07,26.9,00.0,0637.7,34.7
2016-11-07T00:30:00Z,0040380,01000600,0000.02,0000.55,-000.68,0000.69,0000.33,-000.21,-000.09,-000.06,0000.04,26.9,00.0,0637.6,34.7
2016-11-07T00:31:00Z,0040380,01000600,0001.18,0000.11,0000.74,0000.56,0000.20,0000.77,0000.12,-000.08,-000.29,26.8,00.0,0637.6,34.7
2016-11-07T00:32:00Z,0040380,01000600,0000.50,0000.68,0000.01,-000.23,0000.12,0000.03,-000.07,0000.02,0000.13,26.8,00.0,0637.6,34.6
2016-11-07T00:33:00Z,0040380,01000600,0001.04,0000.39,0000.30,0000.36,-000.05,0000.13,-000.01,-000.20,-000.31,26.8,00.0,0637.5,34.6
2016-11-07T00:34:00Z,0040380,01000600,0000.46,0000.28,-000.11,0000.43,0000.13,0000.46,-000.07,-000.11,0000.22,26.7,00.0,0637.5,34.6
2016-11-07T00:35:00Z,0040380,01000600,0001.08,0000.51,-000.46,0000.46,0000.65,-000.13,-000.10,0000.02,-000.25,26.7,00.0,0637.4,34.6
2016-11-07T00:36:00Z,0040380,01000600,0000.68,0000.60,0000.07,-000.66,0000.28,0000.52,0000.13,0000.25,0000.28,26.7,00.0,0637.4,34.6
2016-11-07T00:37:00Z,0040380,01000600,0000.77,0000.31,0000.04,0000.19,0000.26,0000.31,0000.05,0000.06,0000.22,26.6,00.0,0637.4,34.6
2016-11-07T00:38:00Z,0040380,01000600,0001.15,0000.07,0000.11,0000.56,0000.26,-000.03,0000.03,0000.14,-000.02,26.6,00.0,0637.3,34.6
2016-11-07T00:39:00Z,0040380,01000600,0001.18,0000.47,0000.05,0000.09,0000.27,0000.06,-000.04,-000.23,0000.03,26.6,00.0,0637.3,34.7
2016-11-07T00:40:00Z,0040380,01000600,0000.13,0001.05,-000.34,-000.35,0000.54,0000.29,-000.13,0000.19,0000.19,26.6,00.0,0637.3,34.7
2016-11-07T00:41:00Z,0040380,01000600,-000.18,0001.07,-000.31,0000.37,0000.15,0000.05,0000.17,0000.01,-000.02,26.6,00.0,0637.2,34.7
2016-11-07T00:42:00Z,0040380,01000600,0001.25,0001.15,-000.38,0000.49,0000.30,0000.52,-000.03,0000.15,0000.09,26.6,00.0,0637.2,34.7
2016-11-07T00:43:00Z,0040380,01000600,0001.41,0000.62,0000.01,-000.05,-000.03,0000.26,-000.04,-000.35,-000.41,26.6,00.0,0637.2,34.7
2016-11-07T00:44:00Z,0040380,01000600,0000.79,0000.60,0000.30,0000.32,0000.61,-000.10,0000.02,0000.07,0000.20,26.6,00.0,0637.2,34.7
2016-11-07T00:45:00Z,0040380,01000600,0001.22,0000.76,-000.45,0000.49,-000.25,0000.35,-000.27,-000.22,-000.21,26.6,00.0,0637.2,34.7
2016-11-07T00:46:00Z,0040380,01000600,0000.46,0000.79,0000.22,0001.07,0000.14,0000.70,-000.18,-000.03,0000.06,26.7,00.0,0637.2,34.7
2016-11-07T00:47:00Z,0040380,01000600,0000.59,-000.16,0000.21,0000.95,0000.19,0000.27,0000.06,-000.19,-000.25,26.7,00.0,0637.2,34.7
2016-11-07T00:48:00Z,0040380,01000600,0000.69,0000.60,-000.82,0000.29,0000.24,-000.05,-000.01,-000.06,-000.16,26.6,00.0,0637.1,34.7
2016-11-07T00:49:00Z,0040380,01000600,0000.56,0000.25,0000.30,0000.10,0000.57,0000.83,0000.04,0000.09,0000.26,26.7,00.0,0637.1,34.7
2016-11-07T00:50:00Z,0040380,01000600,0000.81,0000.31,-000.25,0000.72,0000.45,-000.27,0000.09,0000.15,0000.18,26.7,00.0,0637.1,34.7
2016-11-07T00:51:00Z,0040380,01000600,0001.01,0000.53,-000.76,0000.39,-000.02,-000.35,0000.18,0000.01,-000.07,26.7,00.0,0637.1,34.7
2016-11-07T00:52:00Z,0040380,01000600,-000.85,0001.10,-000.21,0000.25,0000.40,-000.15,-000.12,0000.06,0000.15,26.7,00.0,0637.0,34.7
2016-11-07T00:53:00Z,0040380,01000600,0001.16,-000.21,0000.23,0000.57,0000.09,0000.47,-000.02,-000.06,-000.20,26.7,00.0,0636.9,34.7
2016-11-07T00:54:00Z,0040380,01000600,0000.83,-000.27,0000.66,0000.15,-000.04,0000.01,0000.13,0000.22,-000.03,26.7,00.0,0636.9,34.7
2016-11-07T00:55:00Z,0040380,01000600,0000.88,0000.97,-000.07,0000.39,0000.36,-000.02,-000.24,-000.01,0000.19,26.7,00.0,0636.9,34.7
2016-11-07T00:56:00Z,0040380,01000600,-000.22,0000.04,0000.04,-000.55,0000.07,0000.55,0000.35,-000.11,0000.03,26.7,00.0,0636.9,34.7
2016-11-07T00:57:00Z,0040380,41000600,,,,,,,,,,26.7,00.0,0636.9,34.7
2016-11-07T00:58:00Z,0040380,61000600,,,,,,,,,,26.7,00.0,0635.8,34.7
2016-11-07T00:59:00Z,0040380,21000600,,,,,,,,,,26.7,00.0,0635.7,34.7
2016-11-07T01:00:00Z,0040380,21000600,,,,,,,,,,26.7,00.0,0635.7,34.7
2016-11-07T01:01:00Z,0040380,21000600,,,,,,,,,,26.7,00.0,0635.7,34.7
2016-11-07T01:02:00Z,0040380,21000600,,,,,,,,,,26.7,00.0,0635.6,34.7
2016-11-07T01:03:00Z,0040380,61000600,,,,,,,,,,26.7,00.0,0635.6,34.7
2016-11-07T01:04:00Z,0040380,41000600,-000.18,-000.35,0000.00,-000.63,-000.60,-000.23,-000.01,0000.20,0000.16,26.7,00.0,0636.5,34.7
2016-11-07T01:05:00Z,0040380,01000600,-001.19,0000.02,0000.07,-000.06,0001.05,-000.46,0000.06,-000.20,-000.02,26.7,00.0,0636.6,34.7
2016-11-07T01:06:00Z,0040380,01000600,-000.85,-000.52,-000.01,0000.33,0000.05,-000.17,-000.23,-000.24,-000.35,26.7,00.0,0636.6,34.7
2016-11-07T01:07:00Z,0040380,01000600,0000.96,0000.00,0000.31,0000.09,-000.65,-000.03,-000.08,-000.07,0000.08,26.7,00.0,0636.7,34.7
2016-11-07T01:08:00Z,0040380,01000600,0000.11,-000.15,-000.37,-000.07,0000.23,-000.22,-000.18,0000.21,-000.22,26.7,00.0,0636.7,34.7
2016-11-07T01:09:00Z,0040380,01000600,-002.32,-000.12,0000.07,-000.20,-000.17,-000.40,-000.01,-000.16,-000.08,26.7,00.0,0636.6,34.7
2016-11-07T01:10:00Z,0040380,01000600,-000.96,-000.48,0000.00,-000.55,-000.33,-000.04,0000.18,-000.16,-000.27,26.7,00.0,0636.6,34.7
2016-11-07T01:11:00Z,0040380,01000600,0000.05,0000.14,-000.15,-000.13,0000.01,-000.09,-000.16,-000.01,-000.04,26.8,00.0,0636.6,34.7
2016-11-07T01:12:00Z,0040380,01000600,-001.41,-000.29,0000.40,0000.27,-000.38,-000.17,-000.03,-000.00,0000.15,26.7,00.0,0636.6,34.7
2016-11-07T01:13:00Z,0040380,01000600,-000.11,-000.11,0000.23,0000.36,-000.03,-000.10,0000.12,0000.12,0000.20,26.7,00.0,0636.5,34.7
2016-11-07T01:14:00Z,0040380,01000600,-000.79,-000.20,-000.27,0000.05,-000.76,-000.28,-000.03,-000.26,0000.17,26.8,00.0,0636.5,34.7
2016-11-07T01:15:00Z,0040380,01000600,-001.04,-000.63,-000.56,-000.92,-000.23,-000.56,-000.06,0000.06,-000.01,26.8,00.0,0636.5,34.7
2016-11-07T01:16:00Z,0040380,01000600,0001.25,-000.66,0000.51,0000.58,0000.11,0000.15,0000.08,0000.08,-000.14,26.8,00.0,0636.5,34.7
2016-11-07T01:17:00Z,0040380,01000600,-000.21,-000.29,0000.06,-000.55,-000.39,-000.24,-000.07,0000.05,-000.43,26.8,00.0,0636.5,34.7
2016-11-07T01:18:00Z,0040380,01000600,-001.05,-000.46,0000.05,-000.07,0000.73,0000.07,0000.04,0000.08,0000.41,26.8,00.0,0636.4,34.7
2016-11-07T01:19:00Z,0040380,01000600,-000.68,-000.31,0000.07,0000.13,-000.03,-000.02,0000.04,0000.01,-000.09,26.8,00.0,0636.4,34.7
2016-11-07T01:20:00Z,0040380,01000600,-001.45,-000.57,0000.15,-000.15,-000.05,-000.06,0000.14,0000.07,-000.20,26.8,00.0,0636.3,34.8
2016-11-07T01:21:00Z,0040380,01000600,0000.34,-000.52,-000.21,-000.35,0000.02,-000.20,0000.04,-000.12,-000.03,26.8,00.0,0636.3,34.8
2016-11-07T01:22:00Z,0040380,01000600,-001.74,-000.83,-000.36,-000.55,0000.07,-000.22,-000.00,0000.31,0000.40,26.8,00.0,0636.3,34.7
2016-11-07T01:23:00Z,0040380,01000600,0000.05,0000.05,0000.46,-000.29,-000.11,0000.01,-000.04,-000.08,0000.06,26.8,00.0,0636.3,34.7
2016-11-07T01:24:00Z,0040380,01000600,-001.94,0000.10,-000.23,-000.02,0000.11,-000.18,-000.02,-000.08,-000.36,26.8,00.0,0636.2,34.7
2016-11-07T01:25:00Z,0040380,01000600,-000.49,-000.47,0000.26,0000.47,-000.42,-000.29,0000.06,0000.21,0000.07,26.8,00.0,0636.2,34.7
2016-11-07T01:26:00Z,0040380,01000600,-000.39,-000.12,-000.19,-000.22,0000.25,-000.18,-000.08,-000.43,0000.09,26.8,00.0,0636.2,34.7
2016-11-07T01:27:00Z,0040380,01000600,-000.02,-000.10,0000.13,-000.28,-000.19,-000.40,-000.11,0000.05,0000.14,26.8,00.0,0636.2,34.7
2016-11-07T01:28:00Z,0040380,01010600,-000.64,-000.68,-000.08,0000.11,0000.23,-000.46,0000.12,0000.22,-000.08,26.8,00.0,0636.1,34.7
2016-11-07T01:29:00Z,0040380,01000600,-000.05,-000.84,0000.38,0000.51,0000.03,0000.14,-000.08,-000.16,-000.20,26.8,00.0,0636.1,34.7
2016-11-07T01:30:00Z,0040380,01000600,-001.28,0000.15,-000.33,-001.00,-000.06,-000.35,0000.16,0000.21,0000.19,26.8,00.0,0636.1,34.7
2016-11-07T01:31:00Z,0040380,01000600,0001.33,-000.11,0000.54,-000.03,-000.37,0000.31,-000.17,-000.08,0000.02,26.8,00.0,0636.1,34.7
2016-11-07T01:32:00Z,0040380,01000600,-000.09,-000.34,0000.15,-000.75,0000.01,-000.07,-000.10,-000.19,-000.09,26.8,00.0,0636.1,34.7
2016-11-07T01:33:00Z,0040380,01000600,-000.02,0000.36,0000.76,-000.53,-000.13,-000.54,0000.10,0000.15,-000.20,26.8,00.0,0636.0,34.7
2016-11-07T01:34:00Z,0040380,01000600,-001.71,0000.06,0000.76,0000.29,-000.46,0000.30,-000.06,-000.28,-000.04,26.8,00.0,0636.0,34.8
2016-11-07T01:35:00Z,0040380,01000600,-001.48,-000.55,0000.23,0000.17,-000.11,-000.51,0000.07,0000.09,0000.22,26.8,00.0,0635.9,34.8
2016-11-07T01:36:00Z,0040380,01000600,-000.18,-000.54,-000.04,0000.19,-000.03,0000.27,0000.25,0000.39,0000.06,26.9,00.0,0635.9,34.8
2016-11-07T01:37:00Z,0040380,01000600,-001.22,-000.30,-000.11,-000.35,-000.18,-000.27,-000.04,-000.06,0000.02,26.9,00.0,0635.8,34.7
2016-11-07T01:38:00Z,0040380,01000600,-000.30,-000.17,-000.13,-000.54,-000.55,-000.14,0000.04,-000.01,-000.11,26.8,00.0,0635.8,34.7
2016-11-07T01:39:00Z,0040380,01000600,0000.53,-000.12,-000.07,-000.77,-000.06,-000.15,0000.01,0000.07,0000.10,26.8,00.0,0635.8,34.7
2016-11-07T01:40:00Z,0040380,01000600,-001.50,-000.19,0000.84,-000.56,-000.04,-000.24,-000.01,-000.06,-000.11,26.8,00.0,0635.7,34.7
2016-11-07T01:41:00Z,0040380,01000600,-000.64,-000.41,-000.31,-000.49,0000.25,-000.30,0000.05,0000.05,0000.23,26.8,00.0,0635.7,34.7
2016-11-07T01:42:00Z,0040380,01000600,0000.17,-000.17,0000.29,0000.15,0000.53,0000.06,0000.09,0000.07,0000.29,26.8,00.0,0635.6,34.7
2016-11-07T01:43:00Z,0040380,01000600,-000.41,-001.09,0000.43,-000.25,-000.26,0000.13,-000.16,0000.07,-000.23,26.8,00.0,0635.6,34.7
2016-11-07T01:44:00Z,0040380,01000600,-000.87,-001.00,-000.27,-000.01,-000.11,-000.16,0000.35,0000.09,0000.18,26.8,00.0,0635.5,34.7
2016-11-07T01:45:00Z,0040380,01000600,-000.48,-000.18,0000.27,-000.40,0000.19,0000.19,-000.15,0000.02,-000.15,26.8,00.0,0635.5,34.7
2016-11-07T01:46:00Z,0040380,01000600,-000.92,-001.26,0000.14,0000.15,-000.27,0000.02,0000.11,0000.18,0000.04,26.8,00.0,0635.4,34.7
2016-11-07T01:47:00Z,0040380,01000600,-001.37,-000.18,0000.10,0000.16,-000.42,0000.01,0000.17,0000.01,0000.36,26.8,00.0,0635.4,34.7
2016-11-07T01:48:00Z,0040380,01000600,-000.37,0000.22,0000.87,-000.26,-000.09,0000.15,0000.09,0000.15,-000.23,26.8,00.0,0635.3,34.7
2016-11-07T01:49:00Z,0040380,01000600,-000.91,-000.22,-000.47,-000.28,-000.09,-001.11,-000.02,-000.14,-000.09,26.8,00.0,0635.3,34.7
2016-11-07T01:50:00Z,0040380,01000600,0000.23,0001.12,-000.12,0000.09,-000.02,-000.09,-000.02,0000.06,-000.12,26.8,00.0,0635.3,34.7
2016-11-07T01:51:00Z,0040380,01000600,-000.54,0000.09,-000.76,0000.35,0000.31,-000.30,-000.11,-000.00,0000.39,26.8,00.0,0635.2,34.7
2016-11-07T01:52:00Z,0040380,01000600,-000.28,-001.01,0000.71,0000.41,-000.25,0000.03,0000.27,0000.16,-000.14,26.8,00.0,0635.1,34.7
2016-11-07T01:53:00Z,0040380,01000600,-000.81,-000.36,0000.26,0000.23,-000.05,0000.20,0000.21,-000.07,0000.49,26.8,00.0,0635.1,34.7
2016-11-07T01:54:00Z,0040380,01000600,-000.57,-000.75,0000.07,-000.43,0000.11,0000.48,-000.23,0000.18,-000.20,26.8,00.0,0635.1,34.7
2016-11-07T01:55:00Z,0040380,01000600,-000.51,0000.53,0000.06,0000.27,-000.33,-000.17,0000.34,0000.10,0000.08,26.8,00.0,0635.0,34.7
2016-11-07T01:56:00Z,0040380,01000600,-000.20,-000.60,-000.39,-000.08,-000.03,-000.19,-000.25,-000.43,-000.27,26.8,00.0,0635.0,34.7
2016-11-07T01:57:00Z,0040380,41000600,,,,,,,,,,26.9,00.0,0634.9,34.7
2016-11-07T01:58:00Z,0040380,61000600,,,,,,,,,,26.8,00.0,0633.9,34.7
2016-11-07T01:59:00Z,0040380,21000600,,,,,,,,,,26.8,00.0,0633.8,34.7
2016-11-07T02:00:00Z,0040380,21000600,,,,,,,,,,26.8,00.0,0633.8,34.7
2016-11-07T02:01:00Z,0040380,21000600,,,,,,,,,,26.8,00.0,0633.7,34.7
2016-11-07T02:02:00Z,0040380,21000600,,,,,,,,,,26.8,00.0,0633.7,34.7
2016-11-07T02:03:00Z,0040380,61000600,,,,,,,,,,26.8,00.0,0633.7,34.7
2016-11-07T02:04:00Z,0040380,41000600,0000.01,0000.55,0000.41,-000.25,0000.48,0000.40,0000.03,0000.02,-000.33,26.8,00.0,0634.5,34.7
2016-11-07T02:05:00Z,0040380,01000600,-001.17,-000.04,0000.11,0000.26,0000.19,0000.07,0000.02,-000.15,0000.23,26.9,00.0,0634.5,34.7
2016-11-07T02:06:00Z,0040380,01000600,-000.81,-000.03,0000.50,0000.33,0000.16,0000.49,-000.05,0000.15,-000.15,26.9,00.1,0634.5,34.7
2016-11-07T02:07:00Z,0040380,01000600,-000.07,-000.49,0000.03,-000.02,0000.30,-000.56,0000.11,-000.03,0000.35,26.8,00.0,0634.5,34.7
2016-11-07T02:08:00Z,0040380,01000600,-000.67,0000.62,-000.10,0000.37,0000.06,-000.17,0000.06,0000.20,-000.36,26.8,00.1,0634.4,34.7
2016-11-07T02:09:00Z,0040380,01000600,-000.39,0000.38,0000.07,-000.23,-000.33,0000.80,-000.08,-000.08,0000.31,26.8,00.1,0634.4,34.7
2016-11-07T02:10:00Z,0040380,01000600,-000.68,0000.11,0000.05,-000.05,0000.22,-000.36,0000.00,-000.13,-000.01,26.8,00.0,0634.3,34.7
2016-11-07T02:11:00Z,0040380,01000600,0001.96,0000.05,0000.37,0000.81,-000.24,0000.31,0000.06,0000.03,-000.07,26.8,00.0,0634.3,34.7
2016-11-07T02:12:00Z,0040380,01000600,0000.09,0000.23,0000.61,0000.12,0000.22,0000.36,-000.07,0000.03,-000.22,26.9,00.1,0634.3,34.7
2016-11-07T02:13:00Z,0040380,01000600,-000.60,0000.10,0000.36,0000.33,-000.04,-000.31,0000.14,0000.11,0000.14,26.8,00.0,0634.3,34.7
2016-11-07T02:14:00Z,0040380,01000600,-000.85,0000.65,-000.10,0000.41,-000.53,-000.45,0000.03,-000.01,0000.16,26.8,00.1,0634.3,34.7
2016-11-07T02:15:00Z,0040380,01000600,0000.28,0000.31,-000.12,0000.18,0000.26,-000.11,0000.12,0000.18,0000.07,26.9,00.0,0634.3,34.7
2016-11-07T02:16:00Z,0040380,01000600,-001.56,-000.94,0000.86,0000.20,0000.13,-000.40,-000.23,-000.16,-000.12,26.8,00.0,0634.2,34.7
2016-11-07T02:17:00Z,0040380,01000600,-000.65,0000.71,0000.75,0000.79,0000.35,0000.38,0000.09,-000.19,0000.13,26.9,00.0,0634.2,34.7
2016-11-07T02:18:00Z,0040380,01000600,0000.03,0000.57,0000.45,0000.19,0000.06,0000.21,-000.06,-000.00,-000.44,26.8,00.0,0634.2,34.7
2016-11-07T02:19:00Z,0040380,01000600,-000.33,0000.94,-000.10,-000.53,-000.14,0000.19,0000.05,-000.04,0000.46,26.8,00.0,0634.1,34.7
2016-11-07T02:20:00Z,0040380,01000600,-000.34,-000.48,0000.20,0000.26,-000.24,-000.25,-000.01,0000.16,-000.67,26.8,00.0,0634.1,34.7
2016-11-07T02:21:00Z,0040380,01000600,-000.01,-000.18,0000.67,0000.52,-000.08,0000.30,0000.02,-000.07,0000.14,26.9,00.0,0634.1,34.7
2016-11-07T02:22:00Z,0040380,01000600,-001.05,0000.01,0000.18,0000.50,-000.02,0000.07,-000.04,-000.08,-000.10,26.8,00.0,0634.1,34.7
2016-11-07T02:23:00Z,0040380,01000600,0000.06,0000.84,0000.19,0000.32,-000.32,-000.43,-000.03,-000.05,0000.05,26.9,00.0,0634.1,34.7
2016-11-07T02:24:00Z,0040380,01000600,-000.65,-000.64,0000.06,0000.66,0000.17,0000.31,-000.02,-000.03,0000.17,26.9,00.0,0634.1,34.7
2016-11-07T02:25:00Z,0040380,01000600,-000.39,0000.29,-000.05,-000.19,0000.56,0000.04,0000.06,0000.21,0000.13,26.9,00.0,0634.1,34.7
2016-11-07T02:26:00Z,0040380,01000600,-000.94,0000.09,0000.50,0000.33,-000.27,0000.26,0000.09,0000.10,0000.28,26.8,00.0,0634.0,34.7
2016-11-07T02:27:00Z,0040380,01000600,-000.78,-000.12,0000.34,-000.59,0000.18,-000.23,-000.29,-000.38,-000.39,26.9,00.0,0634.0,34.7
2016-11-07T02:28:00Z,0040380,01000600,-001.33,0000.60,0000.14,0000.60,-000.13,-000.01,0000.14,0000.13,0000.21,26.9,00.0,0634.0,34.7
2016-11-07T02:29:00Z,0040380,01000600,0000.46,0000.09,0000.03,0000.47,0000.10,0000.11,0000.02,-000.04,-000.40,26.8,00.0,0634.0,34.7
2016-11-07T02:30:00Z,0040380,01000600,0000.65,0000.37,0000.43,0000.75,-000.05,0000.65,0000.01,0000.14,0000.44,26.9,00.0,0634.0,34.7
2016-11-07T02:31:00Z,0040380,01000600,-000.77,0000.04,0000.15,0000.10,-000.46,0000.36,0000.04,-000.07,-000.32,26.9,00.0,0634.0,34.7
2016-11-07T02:32:00Z,0040380,01000600,0000.16,0000.61,-000.06,-001.02,0000.20,-000.55,0000.01,0000.04,0000.21,26.9,00.0,0634.0,34.7
2016-11-07T02:33:00Z,0040380,01000600,0000.10,-000.04,0000.44,0000.09,0000.17,0000.11,0000.00,0000.13,-000.37,26.9,00.0,0634.0,34.7
2016-11-07T02:34:00Z,0040380,01000600,-001.73,0000.17,0000.07,0000.11,-000.22,0000.15,-000.03,-000.08,0000.28,26.9,00.0,0634.0,34.7
2016-11-07T02:35:00Z,0040380,01000600,-000.19,0000.44,0000.44,0000.28,-000.20,-000.65,-000.08,-000.27,-000.15,26.9,00.0,0634.0,34.7
2016-11-07T02:36:00Z,0040380,01000600,-000.22,0000.79,0000.17,0000.33,0000.13,0000.29,0000.20,0000.20,0000.24,26.9,00.0,0634.0,34.7
2016-11-07T02:37:00Z,0040380,01000600,-000.81,0000.43,0000.39,-000.43,0000.05,0000.17,-000.02,-000.17,-000.04,26.9,00.0,0634.0,34.7
2016-11-07T02:38:00Z,0040380,01000600,0000.51,0000.65,0000.27,-000.04,0000.10,0000.04,-000.17,0000.11,-000.15,26.8,00.0,0634.0,34.7
2016-11-07T02:39:00Z,0040380,01000600,-000.22,-000.06,-000.17,0000.10,0000.05,0000.02,0000.10,-000.04,0000.16,26.8,00.0,0634.0,34.7
2016-11-07T02:40:00Z,0040380,01000600,-000.28,0000.30,0001.25,0000.62,0000.30,0000.31,-000.13,0000.04,-000.27,26.8,00.0,0634.0,34.7
2016-11-07T02:41:00Z,0040380,01000600,0000.20,-000.99,0000.91,0000.78,0000.35,-000.08,0000.04,0000.03,-000.18,26.8,00.0,0634.0,34.7
2016-11-07T02:42:00Z,0040380,01000600,-000.25,-000.20,0000.13,0001.03,-000.52,0000.13,-000.07,-000.26,-000.03,26.8,00.0,0634.0,34.7
2016-11-07T02:43:00Z,0040380,01000600,-000.85,-000.22,0000.36,0000.24,-000.12,0000.00,-000.10,0000.18,0000.14,26.8,00.0,0634.0,34.7
2016-11-07T02:44:00Z,0040380,01000600,-000.60,0000.00,-000.20,0000.43,-000.19,-000.16,0000.02,-000.01,0000.18,26.8,00.0,0634.0,34.7
2016-11-07T02:45:00Z,0040380,01000600,-000.17,0000.01,0000.04,-000.32,0000.13,-000.01,0000.27,-000.22,-000.37,26.8,00.0,0634.0,34.7
2016-11-07T02:46:00Z,0040380,01000600,0000.44,0000.33,0001.53,0000.50,0000.16,0000.39,0000.04,0000.33,0000.45,26.8,00.0,0633.9,34.7
2016-11-07T02:47:00Z,0040380,01000600,-000.29,0000.27,0000.40,0000.32,-000.00,-000.03,-000.13,0000.07,-000.12,26.8,00.0,0633.9,34.7
2016-11-07T02:48:00Z,0040380,01000600,-001.79,0000.64,0000.84,-000.36,-000.06,0000.41,0000.14,0000.12,0000.16,26.8,00.0,0633.9,34.7
2016-11-07T02:49:00Z,0040380,01000600,-000.04,-000.43,0000.69,0000.13,0000.37,0000.54,-000.05,-000.40,-000.37,26.8,00.0,0633.9,34.7
2016-11-07T02:50:00Z,0040380,01000600,0000.92,0000.48,0000.74,-000.65,0000.30,0000.26,0000.05,0000.15,0000.04,26.8,00.0,0633.9,34.7
2016-11-07T02:51:00Z,0040380,01000600,-000.38,-000.37,0000.30,0000.42,-000.32,0000.40,-000.09,0000.08,0000.15,26.8,00.0,0633.9,34.7
2016-11-07T02:52:00Z,0040380,01000600,-000.96,0000.86,0000.08,0000.27,-000.15,-000.01,0000.02,0000.01,-000.00,26.8,00.0,0633.9,34.7
2016-11-07T02:53:00Z,0040380,01000600,-000.17,0000.08,-000.06,0000.48,-000.14,-000.13,-000.10,0000.09,-000.06,26.8,00.0,0633.9,34.7
2016-11-07T02:54:00Z,0040380,01000600,0000.74,-000.14,-000.31,-000.07,-000.30,0000.20,-000.09,-000.18,-000.13,26.8,00.0,0633.9,34.7
2016-11-07T02:55:00Z,0040380,01000600,-000.28,0000.54,0000.06,0000.50,0000.48,-000.42,0000.05,-000.08,0000.05,26.8,00.0,0633.9,34.7
2016-11-07T02:56:00Z,0040380,01000600,-000.99,0000.16,0000.19,-000.85,-000.05,0000.44,-000.00,-000.06,-000.12,26.8,00.0,0633.9,34.7
2016-11-07T02:57:00Z,0040380,41000600,,,,,,,,,,26.8,00.0,0633.8,34.7
2016-11-07T02:58:00Z,0040380,61000600,,,,,,,,,,26.7,00.0,0632.8,34.7
2016-11-07T02:59:00Z,0040380,21000600,,,,,,,,,,26.8,00.0,0632.8,34.7
2016-11-07T03:00:00Z,0040380,21000600,,,,,,,,,,26.8,00.0,0632.8,34.7
2016-11-07T03:01:00Z,0040380,21000600,,,,,,,,,,26.8,00.0,0632.8,34.7
2016-11-07T03:02:00Z,0040380,21000600,,,,,,,,,,26.8,00.0,0632.8,34.7
2016-11-07T03:03:00Z,0040380,61000600,,,,,,,,,,26.8,00.0,0632.8,34.7
2016-11-07T03:04:00Z,0040380,41000600,-000.93,-000.46,0000.05,-000.30,0000.09,-000.30,0000.16,0000.32,-000.13,26.8,00.0,0633.7,34.7
2016-11-07T03:05:00Z,0040380,01000600,-000.01,-000.28,-000.10,-000.94,0000.24,0000.04,-000.02,0000.00,0000.09,26.8,00.0,0633.8,34.7
2016-11-07T03:06:00Z,0040380,01000600,0000.80,0000.07,0000.69,0000.20,0000.12,0000.06,0000.21,-000.25,-000.17,26.8,00.0,0633.8,34.7
2016-11-07T03:07:00Z,0040380,01000600,0000.93,0000.08,-000.27,-000.25,0000.46,-000.11,-000.12,0000.04,0000.04,26.8,00.0,0633.9,34.7
2016-11-07T03:08:00Z,0040380,01000600,-000.78,0000.78,0000.37,0000.29,-000.25,0000.23,-000.20,-000.14,-000.16,26.8,00.0,0633.9,34.7
2016-11-07T03:09:00Z,0040380,01000600,-000.50,-000.25,-000.22,-000.40,-000.13,-000.30,-000.08,0000.07,-000.20,26.8,00.0,0633.8,34.7
2016-11-07T03:10:00Z,0040380,01000600,0000.42,0000.16,0000.08,-000.06,0000.35,0000.08,0000.10,0000.15,0000.18,26.8,00.0,0633.8,34.7
2016-11-07T03:11:00Z,0040380,01000600,0000.18,0000.50,0000.41,-000.63,-000.35,-000.01,0000.05,-000.22,0000.19,26.8,00.0,0633.8,34.7